Torna al catalogo

STARLINK-35020

AttivoComunicazioniVLEO
NORAD 65340·PAYLOAD·🇺🇸 United States

Lanciato Aug 27, 2025 da Cape Canaveral Space Force Station

Loading…

Prossimi Passaggi (prossime 24 ore)

TLE

AggiornatoSource: CelesTrak SupGP

Epoca: Sep 14, 2026, 22:43 UTC

1 65340C 25189T   26257.94701389  .00017301  00000+0  55648-3 0  2575
2 65340  53.1581  45.8868 0001178  84.7252  69.3260 15.31685856    12

Traccia STARLINK-35020 in tempo reale con AllMySat

Download on the App Store